Jerez De La Frontera, Spain

7:18 AM CET on February 07, 2016 (GMT +0100)
Jerez

Weather History for LEJR - August, 2013

Change the Weather History Date:

Monday, August 19, 2013

  Actual Average Record
Temperature  
Mean Temperature 86 °F -  
Max Temperature 104 °F 84 °F 104 °F (2013)
Min Temperature 69 °F 61 °F 59 °F (2001)
Cooling Degree Days 22    
Growing Degree Days 36 (Base 50)    
Moisture  
Dew Point 57 °F    
Average Humidity 44    
Maximum Humidity 78    
Minimum Humidity 11    
Precipitation  
Precipitation 0.00 in 0.02 in - ()
Sea Level Pressure  
Sea Level Pressure 29.96 in    
Wind  
Wind Speed 3 mph ()    
Max Wind Speed 10 mph    
Max Gust Speed -    
Averages and records for this station are not official NWS values.
T = Trace of Precipitation, MM = Missing Value Source: Averaged Metar Reports

Daily Weather History Graph

Daily Weather History Graph

Search for Another Location

Airport or City:

Trip Planner

Search our weather history database for the weather conditions in past years. The results will help you decide how hot, cold, wet, or windy it might be!

Date:

Astronomy

Aug. 19, 2013 Rise Set
Actual Time 7:44 AM CEST 9:10 PM CEST
Civil Twilight 7:17 AM CEST 9:37 PM CEST
Nautical Twilight 6:44 AM CEST 10:10 PM CEST
Astronomical Twilight 6:10 AM CEST 10:44 PM CEST
Moon 7:51 PM CEST (8/19) 5:48 AM CEST (8/19)
Length of Visible Light 14h 19m
Length of Day
13h 25m
Waxing Gibbous, 96% of the Moon is Illuminated
Aug 19
Waxing Gibbous
Aug 21
Full
Aug 28
Last Quarter
Sep 5
New
Sep 12
First Quarter

Hourly Weather History & Observations

Time (CEST) Temp. Heat Index Dew Point Humidity Pressure Visibility Wind Dir Wind Speed Gust Speed Precip Events Conditions
2:00 AM 75 °F - 63 °F 58% 29.97 in - Calm Calm - -  
5:00 AM 75.2 °F - 55.4 °F 50% 29.95 in - Variable 1.2 mph - N/A   Clear
5:30 AM 73.4 °F - 57.2 °F 57% 29.95 in - Variable 2.3 mph - N/A   Clear
6:00 AM 73.4 °F - 62.6 °F 69% 29.95 in - North 6.9 mph - N/A   Clear
6:30 AM 73.4 °F - 64.4 °F 73% 29.95 in - Variable 2.3 mph - N/A   Clear
7:00 AM 71.6 °F - 64.4 °F 78% 29.95 in - Variable 1.2 mph - N/A   Clear
7:30 AM 69.8 °F - 62.6 °F 78% 29.95 in - South 3.5 mph - N/A   Clear
8:00 AM 70 °F - 63 °F 72% 29.98 in 31 mi Calm Calm - -  
8:00 AM 69.8 °F - 62.6 °F 78% 29.95 in - SSW 3.5 mph - N/A   Clear
8:30 AM 69.8 °F - 62.6 °F 78% 29.95 in - SSW 3.5 mph - N/A   Clear
9:00 AM 69.8 °F - 62.6 °F 78% 29.95 in - SSW 3.5 mph - N/A   Clear
9:30 AM 69.8 °F - 62.6 °F 78% 29.95 in - SSW 3.5 mph - N/A   Clear
10:00 AM 69.8 °F - 62.6 °F 78% 29.95 in - SSW 3.5 mph - N/A   Clear
10:30 AM 69.8 °F - 62.6 °F 78% 29.95 in - SSW 3.5 mph - N/A   Clear
11:00 AM 69.8 °F - 62.6 °F 78% 29.95 in - SSW 3.5 mph - N/A   Clear
11:30 AM 69.8 °F - 62.6 °F 78% 29.95 in - SSW 3.5 mph - N/A   Clear
12:00 PM 95.0 °F 93.7 °F 57.2 °F 28% 30.01 in - Variable 1.2 mph - N/A   Clear
12:30 PM 96.8 °F 94.4 °F 53.6 °F 23% 30.01 in - Variable 1.2 mph - N/A   Clear
1:00 PM 98.6 °F - 48.2 °F 18% 30.01 in - East 3.5 mph - N/A   Clear
1:30 PM 100.4 °F - 50.0 °F 18% 30.01 in - East 9.2 mph - N/A   Clear
2:00 PM 102 °F - 52 °F 11% 29.99 in 25 mi ESE 8.1 mph - -  
2:00 PM 102.2 °F - 50.0 °F 17% 29.98 in - ESE 6.9 mph - N/A   Clear
2:30 PM 102.2 °F - 51.8 °F 18% 29.98 in - Variable 2.3 mph - N/A   Clear
3:00 PM 104.0 °F 102.3 °F 53.6 °F 19% 29.98 in - Variable 3.5 mph - N/A   Clear
3:30 PM 104.0 °F - 50.0 °F 16% 29.98 in - Variable 2.3 mph - N/A   Clear
4:00 PM 104.0 °F 102.3 °F 53.6 °F 19% 29.98 in - SW 9.2 mph - N/A   Clear
4:30 PM 104.0 °F 102.3 °F 53.6 °F 19% 29.95 in - Variable 2.3 mph - N/A   Clear
5:00 PM 104.0 °F - 51.8 °F 17% 29.95 in - Variable 1.2 mph - N/A   Clear
5:30 PM 104.0 °F - 51.8 °F 17% 29.95 in - SW 10.4 mph - N/A   Clear
6:00 PM 102.2 °F 100.4 °F 53.6 °F 20% 29.95 in - South 9.2 mph - N/A   Clear
6:30 PM 100.4 °F 98.4 °F 53.6 °F 21% 29.95 in - SSE 8.1 mph - N/A   Clear
7:00 PM 98.6 °F 97.2 °F 55.4 °F 24% 29.95 in - South 9.2 mph - N/A   Clear
7:30 PM 96.8 °F 95.1 °F 55.4 °F 25% 29.95 in - SSE 8.1 mph - N/A   Clear
8:00 PM 95.0 °F 92.7 °F 53.6 °F 25% 29.95 in - SSE 9.2 mph - N/A   Clear
8:30 PM 93.2 °F 91.3 °F 55.4 °F 28% 29.95 in - South 5.8 mph - N/A   Clear
9:00 PM 89.6 °F 88.1 °F 57.2 °F 33% 29.95 in - SSE 4.6 mph - N/A   Clear
9:30 PM 86.0 °F 86.1 °F 60.8 °F 43% 29.98 in - South 4.6 mph - N/A   Clear
10:00 PM 84.2 °F 85.0 °F 62.6 °F 48% 29.98 in - Variable 2.3 mph - N/A   Clear
10:30 PM 82.4 °F 83.4 °F 62.6 °F 51% 29.98 in - Variable 2.3 mph - N/A   Clear
11:00 PM 80.6 °F 81.1 °F 59.0 °F 48% 29.98 in - South 5.8 mph - N/A   Clear